| time (UTC) | temp C | wind direction | speed KPH | gust KPH | rain 1hr cm | rain 24hr cm | rain mn cm | humidity % | barometer mb |
| 20260509185915 | 13 | 0.0 | 1.6 | 0.00 | 0.00 | 0.00 | 74 | 1018.9 | |
| 20260509184916 | 13 | 113 | 3.2 | 6.4 | 0.00 | 0.00 | 0.00 | 73 | 1018.8 |
| 20260509183916 | 13 | 113 | 3.2 | 4.8 | 0.00 | 0.00 | 0.00 | 71 | 1018.8 |
| 20260509182915 | 14 | 113 | 1.6 | 6.4 | 0.00 | 0.00 | 0.00 | 70 | 1018.9 |
| 20260509181915 | 15 | 113 | 1.6 | 1.6 | 0.00 | 0.00 | 0.00 | 68 | 1018.9 |
| 20260509180915 | 15 | 68 | 3.2 | 6.4 | 0.00 | 0.00 | 0.00 | 67 | 1018.7 |
| 20260509175916 | 16 | 113 | 3.2 | 4.8 | 0.00 | 0.00 | 0.00 | 66 | 1018.7 |
| 20260509174915 | 16 | 113 | 4.8 | 9.7 | 0.00 | 0.00 | 0.00 | 65 | 1018.6 |
| 20260509173915 | 16 | 113 | 6.4 | 9.7 | 0.00 | 0.00 | 0.00 | 64 | 1018.5 |
| 20260509172916 | 16 | 68 | 3.2 | 6.4 | 0.00 | 0.00 | 0.00 | 63 | 1018.6 |
| 20260509171916 | 16 | 90 | 6.4 | 11.3 | 0.00 | 0.00 | 0.00 | 62 | 1018.6 |
| 20260509170916 | 16 | 0.0 | 1.6 | 0.00 | 0.00 | 0.00 | 63 | 1018.6 | |
| 20260509165916 | 16 | 135 | 8.0 | 11.3 | 0.00 | 0.00 | 0.00 | 62 | 1018.6 |
| 20260509164916 | 16 | 68 | 6.4 | 9.7 | 0.00 | 0.00 | 0.00 | 61 | 1018.7 |
| 20260509163916 | 16 | 90 | 4.8 | 6.4 | 0.00 | 0.00 | 0.00 | 61 | 1018.7 |
| 20260509162935 | 16 | 68 | 6.4 | 12.9 | 0.00 | 0.00 | 0.00 | 61 | 1018.9 |
| 20260509161935 | 16 | 68 | 3.2 | 6.4 | 0.00 | 0.00 | 0.00 | 62 | 1018.9 |
| 20260509160915 | 16 | 113 | 8.0 | 17.7 | 0.00 | 0.00 | 0.00 | 62 | 1019.0 |
| 20260509155915 | 16 | 90 | 9.7 | 14.5 | 0.00 | 0.00 | 0.00 | 61 | 1019.1 |
| 20260509154916 | 16 | 135 | 9.7 | 16.1 | 0.00 | 0.00 | 0.00 | 63 | 1019.2 |
| 20260509153916 | 16 | 135 | 12.9 | 17.7 | 0.00 | 0.00 | 0.00 | 62 | 1019.3 |
| 20260509152935 | 16 | 113 | 9.7 | 19.3 | 0.00 | 0.00 | 0.00 | 63 | 1019.4 |
| 20260509151915 | 16 | 90 | 8.0 | 11.3 | 0.00 | 0.00 | 0.00 | 64 | 1019.5 |
| 20260509150916 | 16 | 0.0 | 3.2 | 0.00 | 0.00 | 0.00 | 64 | 1019.6 | |
| 20260509145916 | 16 | 113 | 6.4 | 14.5 | 0.00 | 0.00 | 0.00 | 64 | 1019.6 |
| 20260509144915 | 16 | 45 | 3.2 | 8.0 | 0.00 | 0.00 | 0.00 | 66 | 1019.8 |
| 20260509143935 | 16 | 113 | 8.0 | 11.3 | 0.00 | 0.00 | 0.00 | 67 | 1019.9 |
| 20260509142916 | 16 | 113 | 9.7 | 14.5 | 0.00 | 0.00 | 0.00 | 67 | 1020.0 |
| 20260509141915 | 16 | 90 | 4.8 | 11.3 | 0.00 | 0.00 | 0.00 | 69 | 1020.1 |
| 20260509140915 | 16 | 135 | 8.0 | 14.5 | 0.00 | 0.00 | 0.00 | 68 | 1020.3 |
| 20260509135916 | 15 | 270 | 4.8 | 8.0 | 0.00 | 0.00 | 0.00 | 67 | 1020.4 |
| 20260509134935 | 15 | 113 | 4.8 | 6.4 | 0.00 | 0.00 | 0.00 | 68 | 1020.4 |
| 20260509133916 | 16 | 113 | 4.8 | 8.0 | 0.00 | 0.00 | 0.00 | 67 | 1020.6 |
| 20260509132915 | 15 | 113 | 6.4 | 11.3 | 0.00 | 0.00 | 0.00 | 66 | 1020.7 |
| 20260509131915 | 15 | 113 | 1.6 | 4.8 | 0.00 | 0.00 | 0.00 | 67 | 1020.7 |
| 20260509130935 | 15 | 113 | 1.6 | 4.8 | 0.00 | 0.00 | 0.00 | 69 | 1020.8 |
| 20260509125915 | 15 | 135 | 9.7 | 12.9 | 0.00 | 0.00 | 0.00 | 70 | 1020.9 |
| 20260509124916 | 15 | 90 | 1.6 | 3.2 | 0.00 | 0.00 | 0.00 | 70 | 1021.0 |
| 20260509123915 | 15 | 90 | 3.2 | 4.8 | 0.00 | 0.00 | 0.00 | 71 | 1021.0 |
| 20260509122916 | 15 | 113 | 4.8 | 8.0 | 0.00 | 0.00 | 0.00 | 69 | 1021.2 |
| 20260509121915 | 15 | 113 | 3.2 | 6.4 | 0.00 | 0.00 | 0.00 | 71 | 1021.3 |
| 20260509120916 | 15 | 113 | 6.4 | 8.0 | 0.00 | 0.00 | 0.00 | 70 | 1021.3 |
| 20260509115915 | 15 | 68 | 4.8 | 6.4 | 0.00 | 0.00 | 0.00 | 70 | 1021.3 |
| 20260509114916 | 15 | 113 | 1.6 | 4.8 | 0.00 | 0.00 | 0.00 | 70 | 1021.3 |
| 20260509113916 | 15 | 113 | 4.8 | 6.4 | 0.00 | 0.00 | 0.00 | 69 | 1021.4 |
| 20260509112915 | 15 | 113 | 3.2 | 6.4 | 0.00 | 0.00 | 0.00 | 70 | 1021.5 |
| 20260509111915 | 15 | 135 | 4.8 | 11.3 | 0.00 | 0.00 | 0.00 | 68 | 1021.5 |
| 20260509110915 | 15 | 113 | 6.4 | 9.7 | 0.00 | 0.00 | 0.00 | 69 | 1021.5 |
| 20260509105916 | 15 | 113 | 3.2 | 4.8 | 0.00 | 0.00 | 0.00 | 68 | 1021.6 |
| 20260509104915 | 15 | 68 | 4.8 | 9.7 | 0.00 | 0.00 | 0.00 | 70 | 1021.7 |
| 20260509103916 | 15 | 90 | 8.0 | 12.9 | 0.00 | 0.00 | 0.00 | 72 | 1021.9 |
| 20260509102915 | 15 | 113 | 8.0 | 9.7 | 0.00 | 0.00 | 0.00 | 71 | 1021.8 |
| 20260509101915 | 15 | 135 | 8.0 | 14.5 | 0.00 | 0.00 | 0.00 | 73 | 1021.9 |
| 20260509100916 | 15 | 135 | 6.4 | 11.3 | 0.00 | 0.00 | 0.00 | 74 | 1021.9 |
| 20260509095915 | 14 | 135 | 9.7 | 12.9 | 0.00 | 0.00 | 0.00 | 74 | 1021.9 |
| 20260509094916 | 14 | 135 | 8.0 | 14.5 | 0.00 | 0.00 | 0.00 | 75 | 1022.0 |
| 20260509093915 | 15 | 135 | 4.8 | 6.4 | 0.00 | 0.00 | 0.00 | 75 | 1022.0 |
| 20260509093008 | 15 | 135 | 3.2 | 4.8 | 0.00 | 0.00 | 0.00 | 75 | 1022.0 |
| 20260509091916 | 14 | 113 | 4.8 | 6.4 | 0.00 | 0.00 | 0.00 | 77 | 1022.1 |
| 20260509090917 | 14 | 135 | 6.4 | 9.7 | 0.00 | 0.00 | 0.00 | 77 | 1022.1 |
| 20260509085918 | 14 | 135 | 3.2 | 8.0 | 0.00 | 0.00 | 0.00 | 77 | 1022.1 |
| 20260509084917 | 13 | 113 | 4.8 | 8.0 | 0.00 | 0.00 | 0.00 | 78 | 1022.0 |
| 20260509083918 | 13 | 135 | 4.8 | 9.7 | 0.00 | 0.00 | 0.00 | 79 | 1022.1 |
| 20260509082917 | 13 | 113 | 3.2 | 4.8 | 0.00 | 0.00 | 0.00 | 79 | 1022.1 |
| 20260509081918 | 13 | 113 | 4.8 | 8.0 | 0.00 | 0.00 | 0.00 | 80 | 1022.1 |
| 20260509080957 | 13 | 90 | 4.8 | 8.0 | 0.00 | 0.00 | 0.00 | 82 | 1022.2 |
| 20260509075917 | 12 | 68 | 1.6 | 3.2 | 0.00 | 0.00 | 0.00 | 83 | 1022.1 |
| 20260509074917 | 12 | 135 | 1.6 | 3.2 | 0.00 | 0.00 | 0.00 | 85 | 1022.1 |
| 20260509073917 | 12 | 158 | 4.8 | 6.4 | 0.00 | 0.00 | 0.00 | 84 | 1022.1 |
| 20260509072937 | 12 | 135 | 3.2 | 6.4 | 0.00 | 0.00 | 0.00 | 85 | 1022.1 |
| 20260509071917 | 12 | 90 | 1.6 | 4.8 | 0.00 | 0.00 | 0.00 | 86 | 1022.2 |
| 20260509070918 | 11 | 68 | 1.6 | 3.2 | 0.00 | 0.00 | 0.00 | 88 | 1022.2 |
| 20260509065958 | 11 | 113 | 3.2 | 4.8 | 0.00 | 0.00 | 0.00 | 88 | 1022.1 |
| 20260509064917 | 11 | 90 | 4.8 | 8.0 | 0.00 | 0.00 | 0.00 | 88 | 1022.2 |
| 20260509063918 | 11 | 0.0 | 1.6 | 0.00 | 0.00 | 0.00 | 89 | 1022.1 | |
| 20260509062937 | 10 | 0.0 | 1.6 | 0.00 | 0.00 | 0.00 | 90 | 1022.1 | |
| 20260509061917 | 10 | 68 | 1.6 | 3.2 | 0.00 | 0.00 | 0.00 | 91 | 1022.1 |
| 20260509060917 | 10 | 90 | 1.6 | 3.2 | 0.00 | 0.00 | 0.00 | 91 | 1022.0 |
| 20260509055917 | 10 | 68 | 3.2 | 4.8 | 0.00 | 0.00 | 0.00 | 91 | 1022.0 |
| 20260509054917 | 10 | 90 | 3.2 | 4.8 | 0.00 | 0.00 | 0.00 | 92 | 1022.0 |
| 20260509053918 | 9 | 113 | 1.6 | 3.2 | 0.00 | 0.00 | 0.00 | 92 | 1022.0 |
| 20260509052918 | 9 | 0.0 | 0.0 | 0.00 | 0.00 | 0.00 | 92 | 1022.1 | |
| 20260509051937 | 8 | 0.0 | 1.6 | 0.00 | 0.00 | 0.00 | 92 | 1022.1 | |
| 20260509050917 | 8 | 90 | 1.6 | 1.6 | 0.00 | 0.00 | 0.00 | 92 | 1022.0 |
| 20260509045917 | 8 | 68 | 3.2 | 3.2 | 0.00 | 0.00 | 0.00 | 92 | 1022.0 |
| 20260509044917 | 8 | 0.0 | 1.6 | 0.00 | 0.00 | 0.00 | 92 | 1022.0 | |
| 20260509043917 | 8 | 0.0 | 0.0 | 0.00 | 0.00 | 0.00 | 92 | 1021.9 | |
| 20260509042917 | 8 | 0.0 | 1.6 | 0.00 | 0.00 | 0.00 | 92 | 1021.9 | |
| 20260509041918 | 8 | 0.0 | 0.0 | 0.00 | 0.00 | 0.00 | 92 | 1021.9 | |
| 20260509040917 | 8 | 0.0 | 0.0 | 0.00 | 0.00 | 0.00 | 92 | 1021.9 | |
| 20260509035917 | 8 | 0.0 | 1.6 | 0.00 | 0.00 | 0.00 | 92 | 1022.0 | |
| 20260509034917 | 8 | 0.0 | 1.6 | 0.00 | 0.00 | 0.00 | 92 | 1022.0 | |
| 20260509033917 | 8 | 90 | 1.6 | 3.2 | 0.00 | 0.00 | 0.00 | 92 | 1022.0 |
| 20260509032917 | 8 | 90 | 1.6 | 3.2 | 0.00 | 0.00 | 0.00 | 92 | 1022.1 |
| 20260509031917 | 8 | 90 | 1.6 | 1.6 | 0.00 | 0.00 | 0.00 | 92 | 1022.1 |
| 20260509030917 | 8 | 90 | 1.6 | 3.2 | 0.00 | 0.00 | 0.00 | 92 | 1022.1 |
| 20260509025917 | 8 | 45 | 1.6 | 1.6 | 0.00 | 0.00 | 0.00 | 92 | 1022.1 |
| 20260509024937 | 8 | 90 | 1.6 | 3.2 | 0.00 | 0.00 | 0.00 | 92 | 1022.1 |
| 20260509023957 | 8 | 0.0 | 1.6 | 0.00 | 0.00 | 0.00 | 92 | 1022.1 | |
| 20260509022957 | 8 | 0.0 | 1.6 | 0.00 | 0.00 | 0.00 | 92 | 1022.2 | |
| 20260509021917 | 8 | 0.0 | 0.0 | 0.00 | 0.00 | 0.00 | 92 | 1022.3 | |
| 20260509020937 | 8 | 0.0 | 0.0 | 0.00 | 0.00 | 0.00 | 92 | 1022.3 | |
| 20260509015937 | 8 | 45 | 1.6 | 3.2 | 0.00 | 0.00 | 0.00 | 92 | 1022.3 |
| 20260509014917 | 8 | 0.0 | 1.6 | 0.00 | 0.00 | 0.00 | 92 | 1022.3 | |
| 20260509013917 | 8 | 0.0 | 1.6 | 0.00 | 0.00 | 0.00 | 92 | 1022.3 | |
| 20260509012937 | 8 | 0.0 | 0.0 | 0.00 | 0.00 | 0.00 | 92 | 1022.2 | |
| 20260509011917 | 8 | 0.0 | 0.0 | 0.00 | 0.00 | 0.00 | 92 | 1022.2 | |
| 20260509010937 | 8 | 0.0 | 1.6 | 0.00 | 0.00 | 0.00 | 92 | 1022.1 | |
| 20260509005917 | 8 | 0.0 | 0.0 | 0.00 | 0.00 | 0.00 | 92 | 1022.2 | |
| 20260509004917 | 7 | 0.0 | 0.0 | 0.00 | 0.00 | 0.00 | 92 | 1022.2 | |
| 20260509003917 | 7 | 0.0 | 1.6 | 0.00 | 0.00 | 0.00 | 92 | 1022.2 | |
| 20260509002917 | 8 | 0.0 | 0.0 | 0.00 | 0.00 | 0.00 | 92 | 1022.2 | |
| 20260509001937 | 8 | 0.0 | 0.0 | 0.00 | 0.00 | 0.00 | 92 | 1022.1 | |
| 20260509000917 | 8 | 0.0 | 1.6 | 0.00 | 0.00 | 0.00 | 92 | 1022.1 | |
| 20260508235917 | 8 | 0.0 | 0.0 | 0.00 | 0.00 | 0.00 | 91 | 1022.1 | |
| 20260508234917 | 8 | 0.0 | 0.0 | 0.00 | 0.00 | 0.00 | 91 | 1022.2 | |
| 20260508233917 | 8 | 0.0 | 0.0 | 0.00 | 0.00 | 0.00 | 90 | 1022.1 | |
| 20260508232917 | 9 | 0.0 | 1.6 | 0.00 | 0.00 | 0.00 | 90 | 1022.1 | |
| 20260508231917 | 9 | 0.0 | 1.6 | 0.00 | 0.00 | 0.00 | 89 | 1022.2 | |
| 20260508230917 | 10 | 0.0 | 0.0 | 0.00 | 0.00 | 0.00 | 89 | 1022.1 | |
| 20260508225937 | 10 | 0.0 | 1.6 | 0.00 | 0.00 | 0.00 | 88 | 1022.2 | |
| 20260508224917 | 10 | 0.0 | 1.6 | 0.00 | 0.00 | 0.00 | 88 | 1022.2 | |
| 20260508223937 | 10 | 90 | 1.6 | 3.2 | 0.00 | 0.00 | 0.00 | 87 | 1022.2 |
| 20260508222917 | 10 | 0.0 | 3.2 | 0.00 | 0.00 | 0.00 | 87 | 1022.2 | |
| 20260508221937 | 10 | 68 | 3.2 | 3.2 | 0.00 | 0.00 | 0.00 | 87 | 1022.2 |
| 20260508220937 | 10 | 68 | 1.6 | 3.2 | 0.00 | 0.00 | 0.00 | 87 | 1022.2 |
| 20260508215916 | 10 | 68 | 1.6 | 4.8 | 0.00 | 0.00 | 0.00 | 87 | 1022.2 |
| 20260508214936 | 10 | 68 | 3.2 | 4.8 | 0.00 | 0.00 | 0.00 | 87 | 1022.2 |
| 20260508213916 | 10 | 68 | 3.2 | 4.8 | 0.00 | 0.00 | 0.00 | 86 | 1022.2 |
| 20260508212916 | 10 | 0.0 | 3.2 | 0.00 | 0.00 | 0.00 | 86 | 1022.2 | |
| 20260508211936 | 11 | 90 | 1.6 | 1.6 | 0.00 | 0.00 | 0.00 | 86 | 1022.3 |
| 20260508210916 | 11 | 135 | 1.6 | 1.6 | 0.00 | 0.00 | 0.00 | 85 | 1022.1 |
| 20260508205916 | 11 | 0.0 | 0.0 | 0.00 | 0.00 | 0.00 | 85 | 1022.1 | |
| 20260508204916 | 11 | 0.0 | 0.0 | 0.00 | 0.00 | 0.00 | 85 | 1022.1 | |
| 20260508203916 | 11 | 0.0 | 0.0 | 0.00 | 0.00 | 0.00 | 85 | 1022.0 | |
| 20260508202916 | 11 | 0.0 | 0.0 | 0.00 | 0.00 | 0.00 | 85 | 1021.9 | |
| 20260508201916 | 11 | 0.0 | 0.0 | 0.00 | 0.00 | 0.00 | 84 | 1022.0 | |
| 20260508200915 | 11 | 0.0 | 0.0 | 0.00 | 0.00 | 0.00 | 83 | 1022.0 | |
| 20260508195916 | 11 | 0.0 | 1.6 | 0.00 | 0.00 | 0.00 | 82 | 1021.9 | |
| 20260508194916 | 11 | 135 | 1.6 | 3.2 | 0.00 | 0.00 | 0.00 | 82 | 1021.8 |
| 20260508193936 | 11 | 0.0 | 1.6 | 0.00 | 0.00 | 0.00 | 82 | 1021.7 | |
| 20260508192916 | 11 | 0.0 | 1.6 | 0.00 | 0.00 | 0.00 | 81 | 1021.8 | |
| 20260508191916 | 11 | 135 | 1.6 | 3.2 | 0.00 | 0.00 | 0.00 | 81 | 1021.7 |
| 20260508190916 | 12 | 135 | 1.6 | 4.8 | 0.00 | 0.00 | 0.00 | 80 | 1021.5 |